Weather History for Whiteman AFB, MO

Change the Weather History Date:

Sunday, October 6, 2013

  Actual Average Record
Temperature  
Mean Temperature 50 °F -  
Max Temperature 61 °F 69 °F 88 °F (2007)
Min Temperature 42 °F 48 °F 33 °F (2000)
Degree Days  
Heating Degree Days 14    
Moisture  
Dew Point 40 °F    
Average Humidity 67    
Maximum Humidity 85    
Minimum Humidity 49    
Precipitation  
Precipitation 0.00 in - - ()
Sea Level Pressure  
Sea Level Pressure 29.92 in    
Wind  
Wind Speed 10 mph (West)    
Max Wind Speed 17 mph    
Max Gust Speed 24 mph    
Visibility 10 miles    
Events      
Averages and records for this station are not official NWS values.
T = Trace of Precipitation, MM = Missing Value Source: NWS Daily Summary

Daily Weather History Graph

Daily Weather History Graph

Search for Another Location

Airport:

Trip Planner

Search our weather history database for the weather conditions in past years. The results will help you decide how hot, cold, wet, or windy it might be!

Date:

Astronomy

Oct. 06, 2013 Rise Set
Actual Time 7:15 AM CDT 6:48 PM CDT
Civil Twilight 6:48 AM CDT 7:15 PM CDT
Nautical Twilight 6:17 AM CDT 7:46 PM CDT
Astronomical Twilight 5:46 AM CDT 8:16 PM CDT
Moon 8:58 AM CDT (10/6) 7:50 PM CDT (10/6)
Length of Visible Light 12h 26m
Length of Day
11h 33m
Waxing Crescent, 3% of the Moon is Illuminated
Oct 6
Waxing Crescent
Oct 11
First Quarter
Oct 18
Full
Oct 26
Last Quarter
Nov 3
New

Hourly Weather History & Observations

Time (CDT) Temp. Windchill Dew Point Humidity Pressure Visibility Wind Dir Wind Speed Gust Speed Precip Events Conditions
12:58 AM 43.2 °F 39.7 °F 38.7 °F 84% 29.93 in 10.0 mi SSW 5.8 mph - N/A   Clear
1:58 AM 45.1 °F 42.0 °F 39.7 °F 81% 29.91 in 10.0 mi SW 5.8 mph - N/A   Clear
2:58 AM 46.8 °F - 36.9 °F 68% 29.89 in 10.0 mi West 11.5 mph - N/A   Clear
3:58 AM 45.5 °F 40.3 °F 36.0 °F 69% 29.89 in 10.0 mi WSW 10.4 mph - N/A   Clear
4:58 AM 43.2 °F 37.9 °F 36.1 °F 76% 29.88 in 10.0 mi SW 9.2 mph - N/A   Clear
5:58 AM 43.2 °F 37.9 °F 35.4 °F 74% 29.89 in 10.0 mi SW 9.2 mph - N/A   Clear
6:58 AM 42.8 °F 38.0 °F 35.6 °F 76% 29.89 in 10.0 mi SW 8.1 mph - N/A   Clear
7:58 AM 43.9 °F 37.9 °F 36.3 °F 75% 29.90 in 10.0 mi WSW 11.5 mph - N/A   Mostly Cloudy
8:58 AM 45.7 °F 40.2 °F 37.6 °F 73% 29.92 in 10.0 mi West 11.5 mph - N/A   Overcast
9:58 AM 49.1 °F - 38.3 °F 66% 29.93 in 10.0 mi West 13.8 mph - N/A   Overcast
10:38 AM 51.8 °F - 39.2 °F 62% 29.91 in 10.0 mi WSW 11.5 mph - N/A   Overcast
10:43 AM 51.8 °F - 39.2 °F 62% 29.91 in 10.0 mi West 13.8 mph - N/A   Overcast
10:58 AM 51.1 °F - 39.0 °F 63% 29.93 in 10.0 mi West 12.7 mph 18.4 mph N/A   Overcast
11:58 AM 50.7 °F - 39.0 °F 64% 29.94 in 10.0 mi West 12.7 mph - N/A   Overcast
12:58 PM 52.7 °F - 39.6 °F 61% 29.93 in 10.0 mi West 16.1 mph - N/A   Overcast
1:58 PM 56.3 °F - 39.0 °F 52% 29.91 in 10.0 mi West 13.8 mph - N/A   Mostly Cloudy
2:58 PM 58.1 °F - 40.8 °F 53% 29.89 in 10.0 mi West 17.3 mph 24.2 mph N/A   Mostly Cloudy
3:58 PM 58.8 °F - 39.7 °F 49% 29.89 in 10.0 mi West 15.0 mph 20.7 mph N/A   Scattered Clouds
4:58 PM 59.9 °F - 40.8 °F 49% 29.89 in 10.0 mi West 17.3 mph - N/A   Overcast
5:58 PM 58.5 °F - 41.7 °F 54% 29.90 in 10.0 mi West 12.7 mph - N/A   Overcast
6:58 PM 57.9 °F - 42.8 °F 57% 29.91 in 10.0 mi West 12.7 mph - N/A   Overcast
7:58 PM 56.8 °F - 44.6 °F 64% 29.93 in 10.0 mi WNW 15.0 mph 19.6 mph N/A   Overcast
8:58 PM 53.8 °F - 42.6 °F 66% 29.96 in 10.0 mi WNW 15.0 mph - N/A   Partly Cloudy
9:58 PM 51.6 °F - 42.8 °F 72% 29.98 in 10.0 mi NW 11.5 mph - N/A   Partly Cloudy
10:58 PM 49.5 °F - 43.0 °F 78% 29.99 in 10.0 mi NW 10.4 mph - N/A   Clear
11:58 PM 47.5 °F - 43.2 °F 85% 30.01 in 10.0 mi West 6.9 mph - N/A   Clear